Weather History for KBOK - October, 2012

Change the Weather History Date:

Sunday, October 7, 2012

  Actual Average Record
Temperature  
Mean Temperature 50 °F -  
Max Temperature 57 °F 67 °F 92 °F (1972)
Min Temperature 43 °F 48 °F 39 °F (1970)
Degree Days  
Heating Degree Days 15    
Moisture  
Dew Point 50 °F    
Average Humidity 98    
Maximum Humidity 100    
Minimum Humidity 81    
Precipitation  
Precipitation 0.00 in - - ()
Sea Level Pressure  
Sea Level Pressure 30.01 in    
Wind  
Wind Speed 1 mph (SSW)    
Max Wind Speed 7 mph    
Max Gust Speed -    
Visibility 3 miles    
Events Fog    
Averages and records for this station are not official NWS values.
T = Trace of Precipitation, MM = Missing Value Source: NWS Daily Summary

Daily Weather History Graph

Daily Weather History Graph

Search for Another Location

Airport or City:

Trip Planner

Search our weather history database for the weather conditions in past years. The results will help you decide how hot, cold, wet, or windy it might be!

Date:

Astronomy

Oct. 07, 2012 Rise Set
Actual Time 7:21 AM PDT 6:47 PM PDT
Civil Twilight 6:53 AM PDT 7:15 PM PDT
Nautical Twilight 6:21 AM PDT 7:47 PM PDT
Astronomical Twilight 5:48 AM PDT 8:20 PM PDT
Moon No Moon Rise 2:06 PM PDT (10/7)
Length of Visible Light 12h 22m
Length of Day
11h 26m
Waning Gibbous, 55% of the Moon is Illuminated
Oct 7
Waning Gibbous
Oct 8
Last Quarter
Oct 15
New
Oct 21
First Quarter
Oct 29
Full

Hourly Weather History & Observations

Time (PDT) Temp. Windchill Dew Point Humidity Pressure Visibility Wind Dir Wind Speed Gust Speed Precip Events Conditions
12:30 AM 48.2 °F - 48.2 °F 100% 30.02 in 1.0 mi Calm Calm - N/A   Mostly Cloudy
12:32 AM 48.2 °F - 48.2 °F 100% 30.02 in 0.5 mi Calm Calm - N/A Fog Fog
12:40 AM 48.2 °F - 48.2 °F 100% 30.02 in 0.2 mi Calm Calm - N/A Fog Fog
12:56 AM 46.9 °F - 46.9 °F 100% 30.02 in 0.2 mi Calm Calm - N/A Fog Fog
1:04 AM 46.4 °F 45.2 °F 46.4 °F 100% 30.01 in 0.2 mi NW 3.5 mph - N/A Fog Fog
1:11 AM 46.4 °F - 46.4 °F 100% 30.01 in 0.2 mi Calm Calm - N/A Fog Fog
1:20 AM 46.4 °F - 46.4 °F 100% 30.01 in 0.2 mi Calm Calm - N/A Fog Fog
1:29 AM 46.4 °F - 46.4 °F 100% 30.01 in 0.2 mi Calm Calm - N/A Fog Fog
1:56 AM 46.9 °F - 46.9 °F 100% 30.02 in 0.2 mi Calm Calm - N/A Fog Fog
2:25 AM 48.2 °F - 46.4 °F 93% 30.01 in 0.2 mi Calm Calm - N/A Fog Fog
2:33 AM 48.2 °F - - N/A% 30.01 in 0.2 mi Calm Calm - N/A Fog Fog
2:56 AM 46.9 °F - - N/A% 30.02 in 0.2 mi Calm Calm - N/A Fog Fog
3:08 AM 46.4 °F - - N/A% 30.01 in 0.8 mi Calm Calm - N/A   Mostly Cloudy
3:11 AM 46.4 °F 45.2 °F - N/A% 30.01 in 0.2 mi NW 3.5 mph - N/A Fog Fog
3:21 AM 46.4 °F - - N/A% 30.01 in 0.8 mi Calm Calm - N/A   Mostly Cloudy
3:23 AM 46.4 °F - - N/A% 30.00 in 3.0 mi Calm Calm - N/A   Mostly Cloudy
3:30 AM 46.4 °F - - N/A% 30.00 in 10.0 mi Calm Calm - N/A   Scattered Clouds
3:44 AM 44.6 °F - - N/A% 30.01 in 5.0 mi Calm Calm - N/A   Haze
3:46 AM 44.6 °F - - N/A% 30.01 in 1.2 mi Calm Calm - N/A   Mostly Cloudy
3:49 AM 44.6 °F - - N/A% 30.01 in 0.5 mi Calm Calm - N/A Fog Fog
3:56 AM 45.0 °F - - N/A% 30.01 in 0.5 mi Calm Calm - N/A Fog Fog
4:07 AM 46.4 °F - - N/A% 30.01 in 0.2 mi Calm Calm - N/A Fog Fog
4:56 AM 45.0 °F - - N/A% 30.01 in 0.2 mi Calm Calm - N/A Fog Fog
5:11 AM 46.4 °F - - N/A% 30.00 in 0.2 mi Calm Calm - N/A Fog Fog
5:39 AM 44.6 °F - - N/A% 30.00 in 0.2 mi Calm Calm - N/A Fog Fog
5:44 AM 44.6 °F - - N/A% 30.00 in 0.8 mi Calm Calm - N/A   Mostly Cloudy
5:46 AM 44.6 °F - - N/A% 30.00 in 1.2 mi Calm Calm - N/A   Mostly Cloudy
5:48 AM 44.6 °F - - N/A% 30.00 in 4.0 mi Calm Calm - N/A   Haze
5:56 AM 43.9 °F - - N/A% 30.01 in 10.0 mi Calm Calm - N/A   Scattered Clouds
6:09 AM 44.6 °F - - N/A% 30.00 in 1.5 mi Calm Calm - N/A   Mostly Cloudy
6:12 AM 44.6 °F - - N/A% 30.00 in 1.0 mi Calm Calm - N/A   Mist
6:16 AM 44.6 °F - - N/A% 30.01 in 0.5 mi Calm Calm - N/A Fog Fog
6:30 AM 44.6 °F - - N/A% 30.01 in 0.2 mi Calm Calm - N/A Fog Fog
6:47 AM 44.6 °F - - N/A% 30.01 in 0.5 mi Calm Calm - N/A Fog Fog
6:56 AM 45.0 °F - - N/A% 30.02 in 0.2 mi Calm Calm - N/A Fog Fog
7:21 AM 44.6 °F - - N/A% 30.01 in 0.5 mi Calm Calm - N/A Fog Fog
7:33 AM 44.6 °F - - N/A% 30.01 in 0.2 mi Calm Calm - N/A Fog Fog
7:47 AM 44.6 °F - - N/A% 30.01 in 0.2 mi Calm Calm - N/A Fog Fog
7:56 AM 43.9 °F - - N/A% 30.02 in 1.8 mi Calm Calm - N/A   Mostly Cloudy
8:03 AM 44.6 °F - - N/A% 30.02 in 10.0 mi Calm Calm - N/A   Mostly Cloudy
8:31 AM 44.6 °F - - N/A% 30.02 in 10.0 mi Calm Calm - N/A   Scattered Clouds
8:56 AM 46.9 °F - - N/A% 30.04 in 10.0 mi Calm Calm - N/A   Partly Cloudy
9:25 AM 50.0 °F - - N/A% 30.03 in 9.0 mi Calm Calm - N/A   Mostly Cloudy
9:46 AM 50.0 °F - - N/A% 30.03 in 2.5 mi Calm Calm - N/A   Overcast
9:56 AM 50.0 °F - - N/A% 30.04 in 2.5 mi Calm Calm - N/A   Overcast
10:15 AM 51.8 °F - - N/A% 30.04 in 2.5 mi SSW 3.5 mph - N/A   Overcast
10:22 AM 51.8 °F - 51.8 °F 100% 30.04 in 8.0 mi Variable 3.5 mph - N/A   Overcast
10:56 AM 50.9 °F - 50.9 °F 100% 30.04 in 3.0 mi SSW 3.5 mph - N/A   Overcast
11:02 AM 51.8 °F - 51.8 °F 100% 30.03 in 1.2 mi SW 3.5 mph - N/A   Overcast
11:07 AM 51.8 °F - 51.8 °F 100% 30.03 in 0.8 mi SSW 3.5 mph - N/A   Overcast
11:12 AM 51.8 °F - 51.8 °F 100% 30.03 in 1.2 mi SSW 3.5 mph - N/A   Overcast
11:16 AM 51.8 °F - 51.8 °F 100% 30.03 in 2.0 mi Variable 3.5 mph - N/A   Overcast
11:25 AM 51.8 °F - 51.8 °F 100% 30.02 in 5.0 mi WSW 3.5 mph - N/A   Overcast
11:56 AM 54.0 °F - 52.0 °F 93% 30.03 in 10.0 mi Variable 4.6 mph - N/A   Scattered Clouds
12:56 PM 56.8 °F - 52.0 °F 84% 30.01 in 10.0 mi Variable 3.5 mph - N/A   Clear
1:56 PM 57.9 °F - 52.0 °F 81% 29.99 in 10.0 mi SW 3.5 mph - N/A   Clear
2:56 PM 55.9 °F - 50.9 °F 83% 29.99 in 10.0 mi WSW 4.6 mph - N/A   Clear
3:37 PM 53.6 °F - 51.8 °F 94% 29.99 in 10.0 mi WNW 3.5 mph - N/A   Scattered Clouds
3:46 PM 51.8 °F - 51.8 °F 100% 29.99 in 5.0 mi WNW 3.5 mph - N/A   Mostly Cloudy
3:56 PM 52.9 °F - 52.9 °F 100% 29.99 in 6.0 mi SW 3.5 mph - N/A   Mostly Cloudy
4:08 PM 53.6 °F - 51.8 °F 94% 29.98 in 10.0 mi Variable 3.5 mph - N/A   Scattered Clouds
4:21 PM 53.6 °F - 51.8 °F 94% 29.98 in 3.0 mi SW 3.5 mph - N/A   Mostly Cloudy
4:36 PM 51.8 °F - 51.8 °F 100% 29.99 in 1.8 mi WSW 3.5 mph - N/A   Overcast
4:38 PM 51.8 °F - 51.8 °F 100% 29.98 in 1.0 mi Variable 3.5 mph - N/A   Overcast
4:40 PM 51.8 °F - 51.8 °F 100% 29.98 in 0.5 mi Calm Calm - N/A Fog Fog
5:13 PM 50.0 °F - 50.0 °F 100% 29.99 in 0.2 mi Calm Calm - N/A Fog Fog
5:30 PM 48.2 °F - 48.2 °F 100% 29.99 in 0.5 mi Calm Calm - N/A Fog Fog
5:41 PM 48.2 °F - 48.2 °F 100% 29.99 in 1.0 mi Calm Calm - N/A   Overcast
5:56 PM 48.9 °F - 48.9 °F 100% 30.00 in 0.2 mi Calm Calm - N/A Fog Fog
6:14 PM 48.2 °F - 48.2 °F 100% 29.99 in 0.5 mi Calm Calm - N/A Fog Fog
6:26 PM 48.2 °F - 48.2 °F 100% 29.99 in 0.2 mi SE 3.5 mph - N/A Fog Fog
6:56 PM 47.8 °F - 47.8 °F 100% 30.00 in 0.2 mi SE 4.6 mph - N/A Fog Fog
7:13 PM 48.2 °F - 48.2 °F 100% 29.99 in 0.5 mi SSE 4.6 mph - N/A Fog Fog
7:25 PM 48.2 °F - 48.2 °F 100% 30.00 in 0.2 mi Variable 3.5 mph - N/A Fog Fog
7:48 PM 48.2 °F - - N/A% 30.00 in 0.2 mi Variable 4.6 mph - N/A Fog Fog
7:56 PM 47.8 °F - - N/A% 30.01 in 0.2 mi South 5.8 mph - N/A Fog Fog
8:16 PM 48.2 °F - - N/A% 30.01 in 0.2 mi Variable 4.6 mph - N/A Fog Fog
8:35 PM 48.2 °F - - N/A% 30.01 in 0.8 mi Variable 4.6 mph - N/A   Overcast
8:47 PM 48.2 °F - - N/A% 30.01 in 1.2 mi Variable 5.8 mph - N/A   Overcast
8:56 PM 47.8 °F - - N/A% 30.02 in 1.8 mi SE 5.8 mph - N/A   Overcast
9:03 PM 48.2 °F - - N/A% 30.01 in 2.5 mi Variable 5.8 mph - N/A   Overcast
9:21 PM 48.2 °F - - N/A% 30.01 in 5.0 mi SSE 6.9 mph - N/A   Haze
9:56 PM 48.9 °F - 48.9 °F 100% 30.02 in 9.0 mi SSE 4.6 mph - N/A   Overcast
10:56 PM 47.8 °F - 47.8 °F 100% 30.02 in 10.0 mi SE 5.8 mph - N/A   Overcast
11:56 PM 47.8 °F - 47.8 °F 100% 30.03 in 6.0 mi ESE 4.6 mph - N/A   Overcast